This is the latest recevied weather packets stored in our database for station/object KE8KMM. If no packets are shown the sender has not sent any weather packets the latest 10 day(s).
| Time | Temp. | Humidity | Pressure | Rain* | Wind** | Luminosity | Snow |
|---|---|---|---|---|---|---|---|
| 1777987731 | 16.67° C | 79% | 1006.7 hPa | 0 mm | - | 115 W/m² | - |
| 1777987429 | 16.67° C | 78% | 1006.7 hPa | 0 mm | - | 80 W/m² | - |
| 1777987126 | 16.67° C | 78% | 1006.7 hPa | 0 mm | - | 88 W/m² | - |
| 1777986823 | 16.67° C | 77% | 1006.6 hPa | 0 mm | - | 58 W/m² | - |
| 1777986521 | 16.67° C | 77% | 1006.7 hPa | 0 mm | - | 56 W/m² | - |
| 1777986218 | 16.67° C | 77% | 1006.8 hPa | 0 mm | - | 46 W/m² | - |
| 1777985915 | 16.67° C | 77% | 1006.5 hPa | 0 mm | - | 45 W/m² | - |
| 1777985613 | 17.22° C | 76% | 1006.8 hPa | 0 mm | - | 48 W/m² | - |
| 1777985309 | 16.67° C | 75% | 1006.6 hPa | 0 mm | - | 46 W/m² | - |
| 1777985006 | 17.22° C | 75% | 1006.7 hPa | 0 mm | - | 44 W/m² | - |
| 1777984702 | 17.22° C | 74% | 1006.6 hPa | 0 mm | - | 47 W/m² | - |
| 1777984399 | 17.22° C | 74% | 1006.5 hPa | 0 mm | - | 70 W/m² | - |
| 1777984095 | 17.22° C | 75% | 1006.4 hPa | 0 mm | - | 72 W/m² | - |
| 1777983793 | 16.67° C | 75% | 1006.3 hPa | 0 mm | - | 98 W/m² | - |
| 1777983489 | 16.67° C | 75% | 1006.2 hPa | 0 mm | - | 90 W/m² | - |
| 1777983186 | 16.67° C | 75% | 1006.1 hPa | 0 mm | - | 76 W/m² | - |
| 1777982882 | 16.67° C | 76% | 1006.2 hPa | 0 mm | - | 70 W/m² | - |
| 1777982578 | 16.67° C | 75% | 1006.2 hPa | 0 mm | - | 53 W/m² | - |
| 1777982277 | 16.67° C | 75% | 1006.2 hPa | 0 mm | - | 46 W/m² | - |
| 1777981975 | 16.67° C | 76% | 1006.5 hPa | 0 mm | - | 48 W/m² | - |
| 1777981672 | 16.67° C | 75% | 1006.3 hPa | 0 mm | - | 45 W/m² | - |
| 1777981368 | 16.67° C | 75% | 1006.4 hPa | 0 mm | - | 39 W/m² | - |
| 1777981065 | 16.67° C | 76% | 1006.5 hPa | 0 mm | - | 29 W/m² | - |
| 1777980761 | 16.67° C | 75% | 1006.3 hPa | 0 mm | - | 26 W/m² | - |
| 1777980457 | 16.67° C | 75% | 1006.1 hPa | 0 mm | - | 30 W/m² | - |
* Rain latest hour (hover to see other rain measurements)
** Current wind speed in m/s (hover to see current wind gust speed)